When you browse on this site, cookies collect data to enhance your experience and personalize the content and advertising you see.
Visit our Privacy Policy to learn more. By continuing to use the site, you agree to this use of cookies and data.
  • In Czech Republic
  • List of Countries
  • For 7 days
  • Water Temperature
  • Weather Map
  • Weather Widgets
  • user-avatar
    Login

    Hourly Weather Nuernberg

    Today, 23 October, Wednesday

    Time Temperature Precipitation Wind Pressure Humidity
    00:00 +12°C° 0 mm 1 mps 738 mmHg 94%
    01:00 +12°C° 0 mm 1 mps 737 mmHg 95%
    02:00 +12°C° 0 mm 1 mps 737 mmHg 95%
    03:00 +12°C° 0 mm 1 mps 737 mmHg 96%
    04:00 +11°C° 0 mm 1 mps 736 mmHg 96%
    05:00 +11°C° 0 mm 1 mps 736 mmHg 96%
    06:00 +11°C° 0 mm 1 mps 736 mmHg 96%
    07:00 +11°C° 0 mm 1 mps 736 mmHg 96%
    08:00 +13°C° 0 mm 1 mps 735 mmHg 93%
    09:00 +14°C° 0 mm 2 mps 735 mmHg 89%
    10:00 +16°C° 0 mm 2 mps 735 mmHg 86%
    11:00 +17°C° 0 mm 2 mps 735 mmHg 82%
    12:00 +18°C° 0 mm 2 mps 734 mmHg 79%
    13:00 +19°C° 0 mm 2 mps 734 mmHg 75%
    14:00 +18°C° 0 mm 2 mps 734 mmHg 77%
    15:00 +18°C° 0 mm 2 mps 733 mmHg 79%
    16:00 +18°C° 0 mm 2 mps 733 mmHg 81%
    17:00 +16°C° 0 mm 2 mps 733 mmHg 85%
    18:00 +15°C° 0 mm 2 mps 732 mmHg 90%
    19:00 +14°C° 0 mm 2 mps 732 mmHg 94%
    20:00 +13°C° 0 mm 2 mps 732 mmHg 95%
    21:00 +13°C° 0 mm 2 mps 732 mmHg 95%
    22:00 +12°C° 0 mm 2 mps 731 mmHg 95%
    23:00 +12°C° 0 mm 2 mps 731 mmHg 95%

    Tomorrow, 24 October, Thursday

    Time Temperature Precipitation Wind Pressure Humidity
    00:00 +12°C° 0 mm 2 mps 730 mmHg 95%
    01:00 +12°C° 0 mm 2 mps 730 mmHg 96%
    02:00 +12°C° 0 mm 2 mps 730 mmHg 96%
    03:00 +10°C° 0 mm 2 mps 729 mmHg 96%
    04:00 +10°C° 0 mm 2 mps 729 mmHg 96%
    05:00 +10°C° 0 mm 2 mps 729 mmHg 96%
    06:00 +10°C° 0 mm 2 mps 729 mmHg 95%
    07:00 +10°C° 0 mm 2 mps 728 mmHg 95%
    08:00 +13°C° 0 mm 2 mps 729 mmHg 88%
    09:00 +14°C° 0 mm 2 mps 729 mmHg 81%
    10:00 +16°C° 0 mm 2 mps 730 mmHg 74%
    11:00 +17°C° 0 mm 2 mps 729 mmHg 73%
    12:00 +18°C° 0 mm 2 mps 729 mmHg 71%
    13:00 +19°C° 0 mm 2 mps 729 mmHg 70%
    14:00 +18°C° 0 mm 2 mps 730 mmHg 73%
    15:00 +18°C° 0 mm 3 mps 730 mmHg 77%
    16:00 +17°C° 0 mm 3 mps 730 mmHg 80%
    17:00 +16°C° 0 mm 3 mps 730 mmHg 84%
    18:00 +15°C° 0 mm 2 mps 731 mmHg 87%
    19:00 +15°C° 0 mm 2 mps 731 mmHg 90%
    20:00 +14°C° 0 mm 2 mps 732 mmHg 91%
    21:00 +14°C° 0 mm 2 mps 733 mmHg 93%
    22:00 +13°C° 0 mm 1 mps 733 mmHg 94%
    23:00 +14°C° 0 mm 2 mps 734 mmHg 92%

    Day after tomorrow, 25 October, Friday

    Time Temperature Precipitation Wind Pressure Humidity
    00:00 +14°C° 0 mm 2 mps 734 mmHg 89%
    01:00 +14°C° 0 mm 2 mps 734 mmHg 87%
    02:00 +14°C° 0 mm 2 mps 735 mmHg 87%
    03:00 +14°C° 0 mm 2 mps 735 mmHg 86%
    04:00 +14°C° 0 mm 2 mps 736 mmHg 86%
    05:00 +12°C° 0 mm 3 mps 736 mmHg 88%
    06:00 +11°C° 0 mm 3 mps 737 mmHg 90%
    07:00 +10°C° 0 mm 3 mps 737 mmHg 92%
    08:00 +11°C° 0 mm 3 mps 738 mmHg 88%
    09:00 +12°C° 0 mm 3 mps 738 mmHg 83%
    10:00 +13°C° 0 mm 3 mps 739 mmHg 78%
    11:00 +13°C° 0 mm 3 mps 738 mmHg 74%
    12:00 +15°C° 0 mm 2 mps 738 mmHg 70%
    13:00 +16°C° 0 mm 2 mps 738 mmHg 65%
    14:00 +16°C° 0 mm 1 mps 738 mmHg 68%
    15:00 +16°C° 0 mm 1 mps 737 mmHg 70%
    16:00 +15°C° 0 mm 0 mps 737 mmHg 72%
    17:00 +13°C° 0 mm 0 mps 737 mmHg 77%
    18:00 +13°C° 0 mm 1 mps 737 mmHg 81%
    19:00 +12°C° 0 mm 1 mps 736 mmHg 85%
    20:00 +11°C° 0 mm 1 mps 736 mmHg 87%
    21:00 +11°C° 0 mm 1 mps 736 mmHg 89%
    22:00 +10°C° 0 mm 2 mps 736 mmHg 91%
    23:00 +10°C° 0 mm 2 mps 736 mmHg 92%

    26 October, Saturday

    Time Temperature Precipitation Wind Pressure Humidity
    00:00 +10°C° 0 mm 2 mps 736 mmHg 93%
    01:00 +10°C° 0 mm 2 mps 735 mmHg 94%
    02:00 +9°C° 0 mm 2 mps 735 mmHg 94%
    03:00 +9°C° 0 mm 2 mps 735 mmHg 94%
    04:00 +9°C° 0 mm 2 mps 735 mmHg 94%
    05:00 +9°C° 0 mm 2 mps 735 mmHg 93%
    06:00 +9°C° 0 mm 2 mps 735 mmHg 92%
    07:00 +9°C° 0 mm 2 mps 735 mmHg 91%
    08:00 +10°C° 0 mm 2 mps 735 mmHg 82%
    09:00 +13°C° 0 mm 2 mps 735 mmHg 74%
    10:00 +14°C° 0 mm 3 mps 735 mmHg 66%
    11:00 +16°C° 0 mm 3 mps 735 mmHg 63%
    12:00 +17°C° 0 mm 3 mps 735 mmHg 60%
    13:00 +18°C° 0 mm 3 mps 735 mmHg 57%
    14:00 +18°C° 0 mm 3 mps 735 mmHg 61%
    15:00 +17°C° 0 mm 2 mps 734 mmHg 66%
    16:00 +16°C° 0 mm 2 mps 734 mmHg 71%
    17:00 +15°C° 0 mm 2 mps 734 mmHg 75%
    18:00 +14°C° 0 mm 2 mps 734 mmHg 79%
    19:00 +13°C° 0 mm 2 mps 734 mmHg 83%
    20:00 +13°C° 0 mm 2 mps 734 mmHg 83%
    21:00 +13°C° 0 mm 2 mps 734 mmHg 83%
    22:00 +13°C° 0 mm 2 mps 734 mmHg 83%
    23:00 +12°C° 0 mm 3 mps 734 mmHg 81%

    27 October, Sunday

    Time Temperature Precipitation Wind Pressure Humidity
    00:00 +12°C° 0 mm 3 mps 734 mmHg 80%
    01:00 +12°C° 0 mm 3 mps 735 mmHg 79%
    02:00 +12°C° 0 mm 4 mps 735 mmHg 80%
    03:00 +11°C° 0 mm 4 mps 735 mmHg 82%
    04:00 +11°C° 0 mm 4 mps 735 mmHg 83%
    05:00 +10°C° 0 mm 4 mps 736 mmHg 82%
    06:00 +8°C° 0 mm 4 mps 736 mmHg 82%
    07:00 +7°C° 0 mm 4 mps 737 mmHg 81%
    08:00 +8°C° 0.1 mm 3 mps 738 mmHg 81%
    09:00 +7°C° 0.1 mm 2 mps 738 mmHg 81%
    10:00 +7°C° 0.1 mm 2 mps 739 mmHg 81%
    11:00 +7°C° 0 mm 2 mps 739 mmHg 78%
    12:00 +8°C° 0 mm 2 mps 739 mmHg 76%
    13:00 +8°C° 0 mm 2 mps 739 mmHg 73%
    14:00 +9°C° 0 mm 1 mps 739 mmHg 72%
    15:00 +10°C° 0 mm 1 mps 739 mmHg 72%
    16:00 +10°C° 0 mm 1 mps 739 mmHg 71%
    17:00 +9°C° 0 mm 1 mps 739 mmHg 76%
    18:00 +6°C° 0 mm 0 mps 739 mmHg 81%
    19:00 +5°C° 0 mm 0 mps 739 mmHg 86%
    20:00 +5°C° 0 mm 0 mps 739 mmHg 86%
    21:00 +5°C° 0 mm 0 mps 739 mmHg 87%
    22:00 +4°C° 0 mm 0 mps 739 mmHg 88%
    23:00 +5°C° 0 mm 0 mps 739 mmHg 87%

    28 October, Monday

    Time Temperature Precipitation Wind Pressure Humidity
    00:00 +5°C° 0 mm 0 mps 739 mmHg 86%
    01:00 +5°C° 0 mm 0 mps 738 mmHg 85%
    02:00 +4°C° 0 mm 0 mps 738 mmHg 85%
    03:00 +5°C° 0 mm 1 mps 738 mmHg 85%
    04:00 +5°C° 0 mm 1 mps 737 mmHg 85%
    05:00 +5°C° 0 mm 1 mps 737 mmHg 84%
    06:00 +5°C° 0 mm 1 mps 737 mmHg 84%
    07:00 +5°C° 0 mm 1 mps 737 mmHg 83%
    08:00 +6°C° 0 mm 1 mps 737 mmHg 78%
    09:00 +7°C° 0 mm 1 mps 737 mmHg 72%
    10:00 +8°C° 0 mm 1 mps 737 mmHg 67%
    11:00 +9°C° 0 mm 1 mps 737 mmHg 63%
    12:00 +10°C° 0 mm 1 mps 737 mmHg 59%
    13:00 +11°C° 0 mm 1 mps 737 mmHg 55%
    14:00 +10°C° 0 mm 1 mps 737 mmHg 58%
    15:00 +9°C° 0 mm 0 mps 736 mmHg 62%
    16:00 +9°C° 0 mm 0 mps 736 mmHg 65%
    17:00 +8°C° 0 mm 0 mps 736 mmHg 68%
    18:00 +7°C° 0 mm 0 mps 736 mmHg 71%
    19:00 +7°C° 0 mm 1 mps 736 mmHg 74%
    20:00 +7°C° 0 mm 1 mps 737 mmHg 76%
    21:00 +7°C° 0 mm 1 mps 737 mmHg 78%
    22:00 +6°C° 0 mm 1 mps 737 mmHg 80%
    23:00 +6°C° 0 mm 1 mps 737 mmHg 81%

    29 October, Tuesday

    Time Temperature Precipitation Wind Pressure Humidity
    00:00 +6°C° 0 mm 1 mps 737 mmHg 81%
    01:00 +4°C° 0 mm 2 mps 736 mmHg 82%
    02:00 +5°C° 0 mm 1 mps 736 mmHg 81%
    03:00 +5°C° 0 mm 1 mps 736 mmHg 81%
    04:00 +5°C° 0 mm 1 mps 736 mmHg 80%
    05:00 +5°C° 0 mm 1 mps 737 mmHg 80%
    06:00 +5°C° 0 mm 1 mps 737 mmHg 80%
    07:00 +5°C° 0 mm 1 mps 737 mmHg 79%
    08:00 +6°C° 0 mm 1 mps 738 mmHg 75%
    09:00 +6°C° 0 mm 1 mps 738 mmHg 71%
    10:00 +6°C° 0 mm 2 mps 739 mmHg 67%
    11:00 +7°C° 0 mm 2 mps 739 mmHg 64%
    12:00 +7°C° 0 mm 2 mps 739 mmHg 61%
    13:00 +8°C° 0 mm 2 mps 739 mmHg 58%
    14:00 +8°C° 0 mm 2 mps 740 mmHg 59%
    15:00 +8°C° 0 mm 2 mps 740 mmHg 61%
    16:00 +7°C° 0 mm 2 mps 740 mmHg 62%
    17:00 +6°C° 0 mm 2 mps 740 mmHg 66%
    18:00 +5°C° 0 mm 2 mps 741 mmHg 69%
    19:00 +4°C° 0 mm 2 mps 742 mmHg 73%
    20:00 +3°C° 0 mm 2 mps 742 mmHg 77%
    21:00 +3°C° 0 mm 2 mps 743 mmHg 81%
    22:00 +2°C° 0 mm 2 mps 744 mmHg 85%
    23:00 +2°C° 0 mm 2 mps 744 mmHg 86%
    Show more